GEFSNE_500_meanwind_156.txt.gz
Wind_Speed
16 17 17 18 18 18 18 18 17 17 18 18 18 19 19 20 19 20 20 20 21 21 21 22 22 23 24 24 24 24 25 25 25 26 26 27 27 27
18 18 19 20 20 21 21 21 21 20 21 21 21 22 22 22 22 23 24 24 24 24 24 25 26 26 26 27 26 27 28 29 29 29 30 30 30 30
19 20 20 21 22 22 23 23 23 24 24 24 24 25 26 26 26 26 26 27 27 28 28 28 29 30 30 30 31 31 31 32 32 33 33 33 33 34
21 22 22 23 24 24 24 24 25 26 27 27 27 27 28 28 28 29 29 30 30 31 31 32 33 33 33 34 34 34 35 35 35 36 36 36 37 38
22 23 23 24 25 25 25 26 26 27 28 28 29 29 30 30 30 30 31 31 32 33 34 35 35 35 36 36 36 37 38 38 38 39 39 40 40 40
23 23 24 25 26 25 26 27 27 28 29 29 29 30 30 31 31 32 33 33 34 35 35 36 37 38 38 38 39 39 40 40 41 41 42 42 43 43
23 24 24 25 26 26 27 27 28 28 29 30 30 30 30 31 32 33 33 34 35 35 36 36 37 38 39 40 40 41 42 42 43 43 44 45 45 45
24 24 25 26 27 28 28 29 29 30 30 31 31 31 32 33 33 34 35 35 35 36 37 38 39 40 41 42 42 43 43 43 44 45 46 46 47 47
25 25 26 27 28 29 29 29 30 31 31 32 32 33 34 34 35 36 36 37 37 38 39 39 41 41 42 42 43 43 44 43 44 45 45 46 47 48
25 26 27 28 28 29 29 30 31 31 32 33 34 35 35 36 37 37 38 38 38 39 40 40 41 41 42 42 43 43 43 43 44 45 46 47 48 49
27 27 27 27 28 29 30 31 32 33 34 35 36 36 36 36 37 38 38 38 39 39 41 42 41 42 42 43 43 44 45 45 46 48 48 49 50 50
26 27 27 28 29 30 31 32 33 34 34 35 35 36 36 36 37 38 39 39 39 39 40 41 41 42 42 43 44 45 46 48 49 49 50 50 51 51
28 29 30 30 30 32 33 33 34 34 35 35 35 35 35 36 38 39 39 39 40 41 41 42 42 43 44 45 46 48 49 50 50 51 51 51 51 52
29 29 30 31 32 32 33 33 34 34 35 35 35 36 37 38 39 40 40 41 42 42 42 43 43 44 45 47 48 49 49 50 50 50 50 51 50 51
29 30 30 31 32 32 32 33 33 34 35 36 36 37 38 39 40 41 41 42 42 42 43 44 44 45 46 46 47 48 48 48 48 49 50 50 49 49
30 31 31 32 32 32 32 32 34 35 36 37 38 38 40 40 41 41 42 43 44 44 44 45 44 45 45 45 45 45 46 46 46 47 47 47 47 47
30 30 31 31 32 32 32 34 34 35 36 36 37 38 39 40 41 42 43 43 43 44 44 44 44 44 44 44 44 44 44 44 45 44 43 43 44 44
30 31 31 31 31 32 33 33 34 35 36 36 37 38 40 41 41 42 42 41 41 41 41 41 41 42 42 42 42 41 41 41 41 40 40 41 41 41
29 30 30 30 31 32 33 34 34 35 36 36 38 39 39 39 39 39 39 39 39 39 40 39 39 38 38 38 39 39 38 38 38 37 38 38 38 38
28 29 30 31 31 32 33 33 34 35 35 36 37 37 37 37 37 37 37 37 37 37 37 37 37 37 36 36 37 37 36 36 36 36 35 36 35 35
28 29 30 31 32 33 34 34 35 35 35 35 35 35 35 35 35 35 35 34 34 35 35 35 35 34 34 34 34 34 34 34 34 33 33 33 33 32
30 31 31 32 33 33 34 34 34 34 34 34 34 34 34 34 33 33 33 33 33 33 33 33 32 32 32 32 32 32 31 31 31 31 31 31 30 30
30 30 31 31 32 32 32 32 32 33 32 32 32 32 31 31 31 31 31 31 31 31 30 30 30 29 29 29 29 29 29 29 28 29 29 29 29 29

GEFSNE_500_meanwind_162.txt.gz
Wind_Speed
16 16 17 18 18 18 18 18 19 21 21 22 22 22 22 22 22 22 23 23 24 24 25 25 25 25 25 26 26 26 27 27 28 28 28 28 29 29
18 19 19 20 20 21 21 21 22 22 23 24 24 24 24 25 25 25 25 26 27 27 28 28 28 28 28 28 28 29 29 30 30 31 31 31 31 32
20 21 21 22 23 23 23 23 24 24 25 26 26 26 27 27 28 28 28 29 29 29 30 30 30 31 31 31 31 31 31 32 33 33 33 33 34 34
21 21 22 23 24 24 25 25 25 26 26 26 27 28 28 28 29 29 30 30 30 30 31 32 32 32 33 34 34 34 34 34 34 35 35 35 36 36
22 23 23 24 24 25 26 26 27 27 27 28 29 30 29 29 31 31 32 32 31 32 32 33 34 35 35 36 36 37 37 37 38 38 38 38 39 39
23 24 24 24 25 26 27 28 28 27 28 29 30 30 30 31 32 32 33 33 33 34 34 35 36 36 36 37 37 37 38 39 39 40 41 41 42 42
23 24 25 25 26 27 27 27 28 28 28 29 30 30 31 32 32 32 33 33 33 35 36 37 38 38 38 38 38 39 39 40 41 41 43 43 44 44
25 26 26 27 27 27 28 28 29 28 29 30 30 31 32 33 34 34 35 35 35 36 37 38 39 39 39 38 39 40 41 42 43 43 44 44 44 45
25 25 26 27 27 26 27 27 28 28 29 30 30 31 32 33 35 35 36 37 37 37 38 39 40 40 40 41 42 43 44 44 45 45 46 46 46 47
26 26 27 27 27 27 28 28 29 30 31 32 32 32 33 34 35 36 37 37 37 38 39 39 39 40 41 41 42 42 42 43 44 45 45 46 46 47
27 27 27 27 27 29 29 30 31 31 32 33 33 34 34 34 35 36 36 37 38 38 38 39 40 41 42 43 43 42 42 43 43 44 44 45 46 46
28 28 28 29 29 29 30 31 31 32 33 33 34 35 35 35 35 36 37 38 39 40 40 41 42 43 43 43 43 43 43 44 44 44 45 46 46 46
28 29 29 30 30 30 31 31 31 31 32 33 34 35 36 37 37 37 37 39 40 41 42 43 43 43 43 44 44 44 43 43 44 44 45 45 46 46
29 30 30 30 31 31 31 31 32 32 33 34 35 35 36 36 36 37 38 39 40 40 40 41 41 42 42 43 43 43 44 44 44 44 44 45 45 46
29 30 30 30 31 31 32 32 33 33 33 34 34 34 35 35 36 37 37 38 38 39 40 40 41 41 42 42 43 43 43 43 42 42 42 43 44 44
29 29 29 30 31 31 31 31 32 33 33 33 33 34 34 34 35 35 36 37 38 38 39 39 40 41 41 41 40 40 39 39 40 40 41 41 41 42
28 28 29 30 30 30 30 31 32 32 32 32 33 33 33 34 34 35 36 37 38 38 38 38 38 38 38 38 38 37 37 37 37 38 38 38 39 39
27 28 28 29 30 30 31 32 31 31 32 32 33 33 34 34 34 35 36 36 36 36 36 36 35 35 36 35 35 35 35 35 35 34 35 36 36 36
28 28 28 28 29 30 30 31 31 32 32 32 32 33 33 34 35 35 35 35 35 34 34 34 33 33 33 33 32 32 32 32 32 33 33 33 33 34
28 28 28 29 29 30 31 31 31 31 31 32 32 33 33 33 34 34 33 33 33 32 32 31 31 31 30 30 30 30 30 30 30 30 31 31 31 31
29 29 29 28 29 29 29 30 30 30 30 31 32 32 32 32 32 31 31 31 30 30 30 29 29 29 29 29 29 29 28 27 28 28 28 28 28 28
28 28 28 28 28 28 29 29 29 30 30 30 30 30 30 30 29 29 29 29 29 29 29 28 28 28 27 27 27 27 26 26 25 26 26 26 26 25
27 27 28 28 28 28 28 28 28 28 28 28 28 28 28 28 27 27 27 28 28 27 27 27 26 26 26 25 25 25 25 25 24 24 24 24 24 24

GEFSNE_500_meanwind_168.txt.gz
Wind_Speed
16 17 18 18 18 18 18 19 19 19 19 20 21 21 22 22 22 23 23 23 24 24 25 26 26 26 26 26 26 27 27 28 28 29 29 29 29 30
16 17 18 19 19 20 21 21 22 23 22 23 24 24 24 25 24 25 26 26 27 27 27 27 27 28 28 28 29 29 30 30 31 32 32 32 33 33
17 18 19 20 21 22 22 23 24 25 25 25 25 25 26 26 26 27 28 29 29 30 30 29 29 30 30 30 31 32 32 33 33 34 35 35 35 35
17 18 19 21 22 23 23 24 25 26 26 26 26 27 27 28 28 28 29 30 31 31 31 31 32 32 32 32 32 33 33 34 35 36 36 37 37 37
19 20 21 22 23 24 24 25 25 26 26 27 27 27 28 29 30 30 31 32 32 32 32 33 33 34 34 33 34 35 35 36 36 37 38 39 39 40
21 22 23 24 24 24 25 26 27 28 29 29 29 29 29 29 29 30 31 31 31 31 31 32 33 34 34 34 35 36 36 36 37 37 38 39 40 41
23 24 25 25 26 26 26 28 29 29 30 30 30 30 30 30 30 31 31 31 32 33 33 33 34 34 35 35 36 37 38 38 38 38 38 39 41 42
24 25 25 26 27 27 27 28 29 29 29 30 30 30 30 30 31 31 32 32 33 33 34 35 35 35 36 36 37 37 37 38 39 40 40 40 41 42
25 26 27 27 28 28 29 29 30 30 31 31 31 31 31 31 31 31 32 32 32 32 33 34 36 37 38 38 38 39 39 39 39 40 41 41 42 43
26 27 28 28 28 29 30 31 31 31 32 32 32 31 32 32 32 33 33 34 35 35 35 36 37 39 40 40 41 41 40 40 40 41 42 43 43 44
27 28 28 28 29 30 31 31 32 32 32 32 31 32 32 33 34 34 35 35 36 36 37 37 38 39 39 41 41 41 41 41 42 43 43 44 44 45
28 28 29 29 30 31 31 32 32 32 32 32 32 33 34 34 34 34 35 35 36 37 37 37 38 38 39 40 40 40 40 41 41 42 43 44 44 44
29 29 29 30 31 31 31 31 31 31 31 32 32 33 34 34 34 34 35 35 35 36 36 37 38 38 39 39 39 39 39 39 40 40 41 41 42 42
29 29 29 30 30 30 30 30 31 32 33 33 33 34 34 34 34 34 34 35 35 36 36 37 37 37 38 39 38 38 38 38 39 39 40 40 39 40
29 28 28 29 30 31 31 31 32 32 33 34 34 34 34 34 34 35 34 34 35 36 37 37 37 37 37 37 38 38 38 38 38 38 38 38 38 38
28 28 29 30 31 32 32 33 33 33 33 33 34 33 34 34 34 34 34 34 35 36 36 36 36 36 36 36 37 37 37 36 36 36 35 35 35 35
29 29 30 30 31 31 32 33 33 33 33 32 33 33 34 34 33 34 34 35 35 35 35 35 35 35 35 35 35 35 34 33 33 33 33 32 33 33
30 30 31 31 32 32 32 32 32 32 32 31 32 32 32 32 33 33 34 34 34 34 34 34 34 34 33 33 33 32 31 30 30 30 30 30 30 30
30 31 31 32 32 32 32 32 31 31 31 31 32 32 32 32 32 33 33 33 33 33 33 33 32 32 31 31 30 29 29 28 28 28 28 28 28 28
31 31 32 32 32 32 32 31 31 31 31 31 31 32 32 31 31 32 32 32 31 31 31 31 30 30 29 28 27 27 27 27 27 27 27 27 27 27
30 30 30 31 31 31 31 31 31 30 30 30 30 30 30 30 30 30 30 30 29 29 29 28 28 27 27 27 26 25 25 26 26 26 26 26 26 26
30 30 30 31 31 30 30 29 29 29 29 29 29 29 29 29 29 29 28 28 27 27 27 27 26 26 25 25 25 25 25 25 25 25 25 25 25 24
30 30 30 30 29 29 28 28 28 28 29 29 29 28 28 28 28 27 27 27 26 26 26 26 26 25 25 25 25 24 24 24 24 23 23 23 24 24

GEFSNE_500_meanwind_174.txt.gz
Wind_Speed
13 13 13 14 15 16 17 17 17 17 18 19 19 20 21 21 22 23 24 25 25 26 27 27 27 27 27 27 28 29 29 30 30 30 31 31 32 32
13 14 15 16 16 17 17 17 18 19 19 20 20 21 22 22 24 24 25 26 27 27 28 28 29 29 29 30 31 31 32 32 33 32 32 33 34 35
15 16 17 17 17 17 18 19 19 20 21 22 22 23 23 24 25 25 26 27 28 28 29 30 30 31 32 33 33 33 34 34 35 35 35 36 36 36
15 16 17 17 18 19 19 20 21 22 22 23 24 25 25 26 26 27 27 28 29 29 30 31 32 33 33 34 35 35 35 36 36 36 37 38 38 38
16 17 18 19 19 20 20 21 23 24 24 24 25 25 26 27 27 28 29 29 30 30 31 32 33 34 35 35 36 36 37 36 37 37 38 38 39 39
16 17 18 19 21 21 22 23 24 25 25 26 26 27 27 28 29 30 31 31 32 32 32 33 34 35 35 36 36 36 37 37 38 38 38 39 39 40
17 18 19 20 22 23 24 24 25 25 25 26 27 28 29 29 30 31 31 32 32 32 33 34 34 35 36 36 36 36 37 37 38 38 39 40 40 41
18 19 20 21 22 23 24 24 25 26 27 28 29 29 29 31 31 31 32 32 33 33 34 34 35 36 36 37 37 37 38 38 39 39 40 40 40 41
20 21 22 23 24 25 25 25 25 27 28 28 29 29 30 30 31 32 32 33 33 33 34 35 36 37 37 37 39 40 40 40 40 41 41 42 42 42
21 22 23 24 24 25 25 26 26 27 27 27 28 29 29 30 31 32 34 34 35 35 35 36 37 38 39 39 39 40 41 41 41 42 42 42 43 43
23 24 24 25 25 25 26 26 26 27 27 28 29 30 30 31 32 33 33 34 35 35 36 36 37 38 39 39 39 40 40 40 41 41 42 42 42 43
24 25 25 25 25 26 26 26 27 27 28 29 29 29 30 31 32 33 34 35 35 36 36 37 37 38 38 38 39 39 39 40 40 40 41 41 41 42
25 25 25 26 26 26 27 27 27 28 29 29 30 30 30 31 31 32 33 34 34 35 36 36 36 36 37 37 38 38 39 38 38 39 39 39 39 40
25 25 26 26 26 27 27 28 29 29 30 30 31 31 32 32 32 33 33 34 34 34 35 35 36 36 37 37 37 38 38 38 38 38 37 37 37 38
25 26 26 26 27 27 28 29 29 30 31 31 32 32 33 32 32 32 32 33 33 34 34 34 35 35 36 36 36 36 36 36 36 35 35 35 36 36
26 26 26 27 27 27 28 29 30 31 31 32 32 32 32 32 31 31 32 32 33 33 33 33 34 34 35 35 35 35 34 34 33 33 34 34 33 33
27 27 27 27 27 28 28 29 30 31 31 31 32 32 32 31 31 31 31 32 32 32 32 32 32 33 33 33 33 33 33 32 32 33 32 32 32 32
27 27 27 28 28 29 29 30 30 30 31 31 31 31 31 30 30 30 30 29 29 30 31 31 31 30 31 31 31 30 30 30 30 30 30 30 30 30
27 27 28 28 29 29 30 30 30 31 31 31 30 30 29 29 29 29 29 28 28 29 29 29 29 28 28 28 28 28 28 28 28 28 28 28 28 28
27 27 28 28 29 29 30 30 31 31 31 30 30 29 28 28 28 28 28 28 29 29 29 28 28 27 27 27 27 27 27 27 26 26 26 26 26 26
27 27 28 28 29 29 30 30 30 30 30 29 29 28 28 28 28 28 29 29 29 28 28 27 27 27 26 26 26 26 26 26 26 25 25 25 24 24
27 28 28 28 29 29 29 29 29 29 29 28 28 28 28 28 28 29 29 29 28 28 27 26 26 25 25 25 25 25 25 25 25 25 25 24 24 23
28 28 28 28 29 28 29 29 28 28 28 27 27 28 28 28 29 29 28 28 27 26 25 25 25 25 25 25 25 25 25 25 24 24 24 24 24 23

GEFSNE_500_meanwind_180.txt.gz
Wind_Speed
14 14 15 15 16 16 17 17 18 18 19 20 20 21 21 22 23 23 24 24 25 25 25 26 27 28 29 29 30 31 31 31 32 33 33 33 32 32
14 15 16 17 17 18 19 19 19 20 20 21 22 22 23 23 23 24 25 26 27 27 28 29 30 30 31 31 32 33 33 33 34 34 35 35 35 35
15 16 18 18 19 20 20 20 21 21 21 22 24 25 25 25 26 26 27 28 28 29 30 30 31 31 32 32 33 33 34 35 35 36 36 37 37 38
17 17 18 19 20 21 22 22 23 23 23 24 26 27 27 28 28 29 30 30 30 32 32 33 33 33 33 33 34 34 35 36 37 38 39 39 39 39
17 19 20 20 21 23 23 24 24 25 26 27 27 28 28 29 30 31 31 32 32 33 33 34 35 35 35 35 36 36 38 39 39 40 40 41 42 42
19 20 20 21 22 23 24 25 26 27 28 28 28 29 29 30 31 31 32 33 33 33 34 35 35 35 36 36 37 37 38 39 40 41 41 42 42 41
19 20 21 22 23 23 24 26 27 28 28 29 28 28 29 29 30 30 31 31 32 33 34 35 35 35 35 36 37 38 39 39 40 40 41 42 42 42
21 21 22 23 23 24 24 24 25 25 26 26 26 27 28 29 29 30 31 32 32 33 34 35 35 36 37 37 38 38 39 40 41 41 40 41 41 41
21 22 23 23 23 24 24 24 25 25 25 25 27 28 29 29 30 31 32 33 34 34 35 36 37 37 37 38 39 40 40 40 40 40 41 41 41 42
23 23 24 24 24 25 24 25 26 26 26 27 28 29 30 31 31 32 33 33 34 35 35 36 37 38 38 39 39 40 40 40 40 40 40 40 41 41
23 24 24 25 25 26 26 26 27 27 28 28 29 30 30 31 31 32 33 34 35 35 36 37 37 37 37 37 38 38 39 39 39 39 39 39 39 40
25 25 26 26 26 26 26 27 27 28 28 29 30 30 30 31 32 33 34 34 35 36 36 36 36 36 36 36 36 36 36 36 37 37 37 37 37 38
26 26 26 26 26 26 26 27 28 28 28 29 30 30 31 32 33 34 34 35 35 35 35 35 35 35 35 35 35 34 34 35 35 35 36 36 36 36
26 27 27 26 27 27 27 28 29 29 29 30 30 31 32 32 33 33 34 34 34 34 33 33 33 33 34 33 34 34 34 35 35 35 34 34 34 34
27 27 27 28 28 28 28 28 28 29 30 31 30 31 31 32 33 33 33 32 33 32 32 31 31 32 32 33 33 34 34 34 34 33 33 33 33 33
28 28 28 28 28 28 28 28 29 29 30 30 30 31 31 31 31 31 31 31 30 30 30 30 31 31 31 31 32 32 32 32 32 31 31 31 31 31
28 28 28 28 28 28 28 29 29 30 30 30 31 31 31 31 31 31 31 30 29 29 30 30 31 31 30 31 30 30 30 30 30 29 29 29 29 30
28 28 28 28 28 28 29 29 30 30 30 31 31 31 31 31 31 31 30 29 29 29 30 30 30 30 30 29 29 29 29 29 28 28 28 28 28 28
28 28 28 28 28 28 29 29 29 29 30 30 31 31 30 30 30 30 30 29 29 29 29 29 29 29 29 29 29 29 28 28 27 27 27 27 26 27
28 28 27 27 28 28 29 29 29 29 30 30 30 30 30 30 30 29 29 28 29 29 29 29 29 28 28 28 28 27 27 27 27 26 26 26 26 26
28 27 27 27 28 28 29 29 29 29 30 30 30 30 29 29 29 29 29 29 29 29 29 29 28 28 27 27 26 26 26 26 26 26 26 25 24 24
27 27 27 28 28 28 29 29 29 29 29 29 29 29 29 29 29 29 29 29 29 29 29 28 28 27 27 26 26 26 26 26 26 26 25 24 24 23
27 27 28 28 29 29 29 29 29 29 29 29 29 29 29 29 29 29 29 28 28 28 28 27 27 27 27 26 26 26 26 26 26 25 26 25 24 23

GEFSNE_500_meanwind_186.txt.gz
Wind_Speed
13 14 15 15 16 16 17 18 18 19 20 21 21 21 22 23 23 23 23 24 25 25 25 26 26 27 27 28 29 30 30 30 30 31 32 33 33 33
14 15 16 16 17 18 19 19 20 20 21 22 23 23 24 23 23 24 25 25 26 26 27 28 28 28 28 28 29 29 30 32 32 32 33 34 35 35
15 16 16 18 18 19 20 20 21 22 22 22 23 24 25 25 25 26 27 27 27 28 29 30 30 30 31 30 31 32 32 33 34 34 35 36 37 38
15 16 17 18 19 20 21 21 22 22 22 23 24 25 26 27 27 28 28 28 29 30 31 31 32 32 33 33 33 34 34 35 35 35 36 37 38 39
16 16 17 18 19 20 21 22 22 23 23 25 26 26 27 28 28 28 28 28 30 31 31 31 32 32 33 33 34 34 35 35 36 37 38 38 39 40
16 17 17 18 19 20 21 22 23 24 24 25 26 26 27 27 27 27 27 28 29 30 31 31 32 32 33 34 34 35 36 37 37 38 38 39 40 40
18 18 19 20 21 22 23 23 24 24 24 25 25 26 26 26 26 27 28 29 30 31 32 32 33 33 34 35 35 36 37 37 38 38 39 39 40 40
18 19 19 20 22 23 23 24 24 24 24 25 25 25 26 26 27 28 29 30 30 30 31 33 34 34 35 35 35 36 37 37 37 38 38 38 39 39
19 20 21 21 22 23 23 24 24 24 25 26 26 27 28 28 29 29 30 31 31 31 32 32 33 33 34 35 36 36 37 37 37 37 37 38 38 39
20 21 21 22 23 23 23 24 24 25 26 27 28 28 28 29 29 29 30 31 31 32 32 32 33 33 34 35 35 35 35 35 36 36 36 37 37 37
21 22 22 23 23 23 24 25 25 25 26 27 28 28 28 28 28 28 29 30 31 31 32 32 33 34 34 34 34 33 33 33 34 34 34 34 35 36
23 23 24 24 24 24 24 25 25 26 28 28 28 27 27 28 28 29 30 30 30 31 31 32 32 33 33 33 32 32 32 33 33 33 33 33 34 34
24 25 25 25 25 25 26 26 27 27 28 28 28 28 28 28 29 29 30 30 30 30 30 30 31 31 31 31 31 31 31 32 32 32 32 32 33 33
25 25 26 26 26 26 26 27 27 28 29 29 28 28 28 28 29 29 29 29 29 29 29 29 29 29 29 29 30 30 30 31 31 31 31 32 32 32
26 27 27 27 27 28 27 28 28 29 29 29 28 28 28 28 29 29 29 29 29 29 29 29 29 29 29 29 30 30 30 30 30 30 30 31 31 30
27 27 28 28 28 29 28 28 29 30 29 29 29 29 29 29 28 29 29 29 29 29 29 29 29 29 29 29 29 29 30 30 29 29 29 29 29 30
28 28 29 29 29 29 28 28 28 29 29 29 29 29 29 29 29 29 29 29 29 29 29 29 29 29 29 29 29 29 29 28 28 29 29 29 30 30
29 29 29 29 28 28 28 28 29 29 29 29 29 29 29 29 29 29 29 29 28 28 28 28 28 28 28 27 28 28 28 27 28 28 28 28 28 28
29 29 29 28 28 28 28 28 28 29 29 29 29 29 29 29 29 28 28 28 28 28 28 28 28 28 27 27 27 27 27 27 27 27 26 26 26 26
29 29 29 28 28 28 28 28 29 29 29 28 28 28 28 28 28 28 28 28 28 28 28 28 27 27 27 27 27 27 27 26 26 26 25 25 25 25
29 28 28 28 28 27 28 28 29 28 28 28 28 28 29 29 29 28 28 28 28 28 28 28 27 27 27 27 27 26 26 25 25 25 25 25 25 25
28 28 28 28 28 27 28 28 29 28 28 28 28 29 29 28 28 28 28 28 27 28 28 28 28 27 27 27 26 26 26 26 25 25 25 25 25 25
29 28 28 28 28 28 28 29 28 27 28 28 28 28 28 28 28 27 27 28 28 28 29 28 28 27 27 26 26 26 26 26 26 26 26 25 25 25

GEFSNE_500_meanwind_192.txt.gz
Wind_Speed
13 13 13 14 15 16 16 17 17 17 18 20 20 21 21 21 21 21 22 23 23 24 24 25 25 26 26 26 27 28 28 28 29 29 30 31 31 32
13 14 14 15 16 17 17 18 18 19 19 20 21 22 22 22 23 23 23 23 23 24 25 25 26 26 27 28 28 29 29 30 30 32 32 33 33 33
13 14 15 16 17 17 18 18 19 19 20 21 22 22 23 24 24 24 24 24 24 25 25 26 26 27 28 29 30 31 31 32 32 33 33 33 34 35
15 15 16 16 17 18 19 19 19 20 21 21 22 23 24 24 25 25 24 25 26 27 27 27 28 29 29 30 31 31 32 32 32 33 34 34 35 35
16 17 17 17 18 19 19 20 20 20 21 23 23 24 24 25 25 25 25 26 26 27 28 28 29 30 30 31 31 31 32 33 33 35 36 36 36 36
17 17 17 18 19 20 20 21 21 22 22 23 23 24 25 26 26 26 27 27 27 28 28 28 29 31 31 32 32 32 32 33 34 35 36 36 37 37
18 18 18 19 20 20 21 22 23 23 23 24 24 25 25 25 26 27 27 27 28 28 28 29 30 31 32 32 33 33 33 33 34 34 35 35 35 36
19 19 20 21 21 21 22 23 23 24 24 24 25 25 25 26 26 27 28 28 28 29 29 29 30 30 31 31 32 32 33 33 33 33 34 35 35 35
20 20 21 22 22 23 23 24 24 24 25 25 26 26 26 26 27 27 28 29 30 30 30 30 30 30 31 31 32 32 32 33 33 34 34 34 33 34
22 22 22 23 24 24 24 24 25 25 26 26 27 27 27 27 28 28 29 30 30 30 30 31 31 31 31 32 32 32 32 33 33 34 34 34 34 34
23 23 24 24 24 24 25 26 26 27 27 27 28 28 29 29 29 30 30 31 31 31 31 31 32 32 32 31 31 32 32 33 33 33 33 33 33 34
24 24 24 25 25 26 27 28 28 28 28 28 28 29 30 30 30 31 31 31 30 30 31 31 31 31 31 31 30 31 31 32 32 32 33 33 33 33
25 25 26 26 27 28 29 29 29 29 29 29 30 30 31 31 31 31 31 30 30 30 31 31 31 31 31 31 30 30 30 31 31 31 31 32 32 32
26 26 27 28 29 29 30 30 30 30 30 30 31 31 31 31 31 31 31 31 30 30 31 31 31 31 31 31 31 31 31 30 30 30 30 30 31 31
27 28 29 29 30 30 30 30 30 30 30 31 31 31 31 31 31 31 30 30 30 30 30 31 31 31 31 31 31 30 30 30 30 30 30 29 29 30
29 29 30 30 30 30 30 30 30 30 31 31 31 31 31 30 30 30 30 30 30 30 30 30 30 30 30 30 30 30 29 29 29 29 29 29 29 28
30 30 30 30 30 30 30 30 30 30 31 31 30 30 30 30 30 30 30 30 30 29 30 30 30 30 29 29 29 29 29 29 29 29 29 29 29 28
30 30 31 30 30 30 30 30 30 31 31 30 30 31 30 30 31 30 30 30 29 29 29 29 29 29 29 29 29 29 29 30 29 29 29 29 28 28
31 31 31 31 31 31 31 31 31 31 31 31 31 31 31 31 31 30 30 29 29 29 29 29 29 29 29 29 29 29 29 30 29 29 29 28 28 27
32 32 32 32 31 31 31 31 31 31 31 31 31 31 31 31 30 30 29 29 29 29 28 28 29 29 29 29 29 29 29 29 29 29 29 28 28 27
32 32 32 33 32 32 32 31 31 31 31 31 31 31 31 30 30 30 29 29 29 29 29 29 29 29 29 29 29 28 28 28 28 28 28 28 27 27
33 33 33 33 33 33 32 31 31 30 30 31 31 31 30 31 31 30 30 30 29 29 29 29 29 29 29 29 29 28 28 28 28 28 28 28 28 27
33 34 34 33 33 32 31 31 31 31 31 31 31 31 31 30 30 30 30 29 30 30 30 30 29 29 29 29 29 29 29 28 28 28 28 27 27 27

GEFSNE_500_meanwind_198.txt.gz
Wind_Speed
9 10 11 11 12 12 12 13 14 15 16 17 18 18 19 20 20 20 20 21 21 22 23 23 23 23 24 25 25 26 26 27 28 28 28 28 28 30
11 12 12 12 13 13 14 14 16 17 17 18 19 20 20 20 21 21 21 21 22 22 23 24 24 24 24 25 26 26 26 27 28 29 30 30 30 31
12 12 13 13 14 14 15 16 16 17 17 18 19 19 20 21 21 21 22 23 23 24 24 24 24 25 25 26 27 27 27 28 29 30 30 30 32 33
13 13 14 14 14 15 16 16 17 18 18 18 18 19 20 20 21 21 22 23 24 24 24 24 25 26 26 27 28 28 28 29 30 30 31 31 32 33
13 14 14 15 16 16 17 17 18 18 19 19 20 20 20 21 22 22 23 23 23 23 24 25 26 26 27 28 28 29 30 30 31 31 31 32 33 33
14 14 15 15 16 17 17 18 18 19 20 20 21 21 21 22 23 23 23 24 25 25 25 26 26 26 27 28 28 29 29 30 31 32 32 33 33 33
15 15 16 16 17 17 18 18 19 20 21 21 21 22 22 23 23 24 24 25 25 26 26 27 27 27 28 28 28 29 30 30 31 31 32 32 32 33
17 17 18 18 18 18 18 19 20 21 22 22 23 23 24 24 24 25 25 26 26 27 27 28 28 29 29 29 29 30 30 31 31 31 32 32 33 33
18 19 19 19 19 19 20 21 22 22 23 23 24 25 25 25 26 26 27 27 27 28 28 29 30 30 31 31 30 30 31 31 32 32 32 32 32 33
19 19 20 20 21 21 22 23 23 23 24 25 26 26 26 26 27 27 28 28 29 29 30 30 31 31 32 31 31 31 32 32 32 32 33 33 33 33
20 21 21 21 22 22 23 24 24 25 25 26 26 27 27 27 27 28 28 29 29 30 31 31 31 31 31 31 31 31 32 32 32 33 33 33 33 33
22 22 22 22 23 23 24 24 25 26 27 27 27 27 28 28 28 29 29 29 30 30 30 31 31 30 30 30 30 31 31 31 31 32 32 32 32 32
24 24 24 24 24 24 25 25 26 27 28 28 28 28 28 28 29 29 30 30 30 30 30 30 30 30 30 30 30 30 30 31 31 31 31 31 31 31
24 25 25 25 26 26 26 26 26 27 28 28 28 28 28 28 29 29 29 29 29 29 29 29 29 29 30 30 31 31 31 30 30 30 31 30 30 29
26 26 26 27 27 27 27 27 28 28 28 28 28 28 28 28 29 29 29 29 29 30 30 30 30 31 31 30 30 30 30 30 30 30 29 29 29 28
27 26 27 27 27 28 28 28 29 29 28 28 29 29 29 29 29 29 30 30 30 31 31 31 30 30 30 30 30 29 29 29 29 29 29 29 29 28
27 27 27 28 28 28 29 29 29 29 29 29 29 29 29 29 30 30 30 30 30 31 31 31 30 29 29 29 29 29 29 29 29 28 28 28 28 28
28 28 28 28 29 29 29 30 30 30 30 30 30 30 29 29 29 30 30 30 30 29 29 30 30 30 30 29 29 29 29 29 28 28 28 27 27 28
29 29 29 29 30 30 30 31 31 30 30 30 30 29 29 29 29 29 29 29 29 29 29 29 29 29 29 29 29 29 28 28 29 28 28 28 27 27
30 30 30 30 30 31 31 31 31 30 30 30 30 29 29 28 28 28 29 29 28 29 29 29 29 28 28 27 27 28 28 29 29 29 28 28 28 27
30 30 30 30 30 31 31 30 30 31 31 30 30 29 28 28 28 28 29 29 29 29 28 28 28 28 28 28 28 28 29 29 29 29 28 28 27 27
31 31 31 31 31 31 31 30 30 30 30 30 29 29 28 29 29 29 29 29 29 29 29 29 29 29 29 29 29 29 29 29 28 28 29 28 28 27
30 30 31 31 31 31 30 30 30 30 29 30 30 29 29 29 29 30 30 30 30 30 30 30 30 30 30 30 30 29 29 29 28 28 28 28 28 27

GEFSNE_500_meanwind_204.txt.gz
Wind_Speed
11 11 12 12 13 14 14 15 15 15 16 17 18 18 18 19 19 20 20 21 22 21 22 23 24 24 24 25 26 26 27 27 28 28 29 29 29 29
12 12 12 13 14 15 15 16 16 17 17 18 18 19 19 20 20 21 21 22 22 22 23 23 24 24 25 25 25 26 27 28 28 28 29 29 30 31
13 13 14 14 15 16 16 17 17 18 18 19 19 19 19 20 20 21 22 22 22 23 24 24 23 24 24 25 26 26 27 27 27 28 29 30 32 33
14 14 15 15 16 17 17 18 18 18 19 19 20 20 20 20 21 22 22 22 23 24 24 25 25 25 25 26 27 27 27 28 29 30 30 31 32 33
14 15 15 16 16 17 17 17 18 19 19 20 20 21 21 22 22 23 23 23 24 24 25 25 26 26 26 27 27 28 28 29 29 30 30 31 32 33
15 16 16 16 16 17 17 18 19 19 20 20 21 21 22 22 23 24 24 25 26 26 26 27 27 28 28 28 29 29 29 30 30 31 31 32 33 33
16 16 16 17 17 18 18 19 20 20 21 21 22 23 23 23 24 25 25 26 26 27 27 27 28 29 30 30 30 30 31 31 31 32 32 32 33 33
17 17 17 18 18 19 19 20 21 22 22 22 24 25 25 25 25 25 26 27 27 27 28 29 29 30 31 31 32 32 32 32 32 32 32 32 33 33
18 18 18 19 20 20 21 22 23 23 23 24 24 25 26 26 26 27 27 27 28 28 29 30 31 31 31 32 32 32 32 32 32 32 33 33 33 33
19 19 20 20 21 22 22 23 24 24 25 25 26 26 27 27 27 28 28 29 30 30 30 30 31 31 31 31 31 32 32 32 32 32 32 33 33 33
20 20 21 21 22 23 23 24 25 25 26 26 27 27 28 28 28 29 29 29 30 30 30 30 31 31 31 31 32 32 31 31 31 31 31 32 32 32
21 22 22 23 23 24 24 24 25 26 26 27 27 27 28 28 29 29 30 30 30 31 31 31 31 31 31 31 31 31 32 31 31 31 32 32 32 32
23 23 24 24 25 25 25 26 26 26 27 27 28 28 28 28 29 29 30 30 30 31 31 31 31 31 31 31 31 32 32 32 31 31 31 31 31 31
24 25 25 26 26 26 27 27 27 27 28 28 28 28 29 29 29 29 30 30 30 30 30 30 30 31 31 31 31 31 31 31 31 31 31 31 31 31
26 26 26 27 27 27 27 28 28 29 29 28 29 29 29 30 30 30 30 30 30 31 31 31 31 31 31 31 30 30 31 31 31 30 30 30 30 30
27 27 28 28 28 29 28 28 29 29 29 29 30 30 30 30 30 30 30 30 31 31 31 31 31 31 31 31 30 30 30 30 30 30 30 29 30 30
28 29 29 29 29 29 29 29 29 30 30 30 30 30 30 30 30 30 30 31 31 31 31 31 30 30 30 30 30 30 30 30 30 30 30 29 30 30
30 30 30 30 30 30 29 30 29 29 30 30 30 30 30 30 30 30 31 30 30 30 30 30 30 30 30 29 29 29 29 29 29 29 30 29 29 29
31 31 31 31 31 30 30 30 30 30 30 30 31 31 31 30 30 30 30 30 30 30 30 29 29 30 30 30 30 30 29 29 30 29 29 29 29 29
32 32 31 31 31 31 30 30 30 30 31 31 31 31 31 30 30 30 30 30 30 30 30 30 30 30 29 29 29 29 30 29 29 29 29 28 28 28
32 32 32 32 31 31 31 31 31 31 31 31 31 31 30 30 30 30 30 31 31 31 31 31 30 30 30 30 29 29 29 29 29 29 29 28 27 27
33 33 33 33 32 32 32 32 32 32 31 31 31 31 31 31 31 31 31 32 32 31 31 31 31 31 31 30 30 30 30 30 30 30 29 28 28 28
34 33 33 32 32 32 32 32 32 32 31 31 32 32 32 32 32 32 32 32 32 31 31 31 31 31 31 31 31 31 30 29 30 30 29 29 29 28

GEFSNE_500_meanwind_210.txt.gz
Wind_Speed
12 12 12 13 13 13 14 14 14 15 16 17 18 18 18 19 19 19 19 20 20 20 21 21 22 22 22 23 23 23 24 25 26 27 28 29 29 29
12 13 13 14 14 14 15 15 15 16 16 18 18 19 20 20 19 20 20 21 21 21 22 22 22 23 23 24 24 25 26 26 27 28 28 28 28 29
13 14 14 14 15 15 16 17 17 17 18 18 19 19 20 20 20 21 21 21 22 22 23 22 22 23 24 25 26 26 27 27 27 27 28 27 28 28
15 15 15 15 15 16 17 18 18 18 19 19 19 20 20 21 21 21 22 22 23 24 24 24 24 24 25 26 26 27 27 28 28 28 29 29 29 30
15 15 16 16 16 17 17 18 18 18 19 19 20 21 21 22 22 22 23 24 24 25 25 25 26 26 27 27 27 28 28 29 30 31 31 31 31 32
16 16 16 17 17 18 18 18 18 19 20 20 21 22 22 23 23 24 25 25 26 26 26 26 27 27 28 28 29 30 30 30 31 31 32 32 33 33
16 17 17 17 18 18 19 19 20 20 21 22 23 23 24 24 25 25 26 26 27 27 27 27 28 28 29 29 30 31 31 31 31 31 32 32 33 33
17 17 17 17 18 20 20 21 21 22 22 23 24 24 24 25 26 26 26 26 27 27 28 28 28 28 29 29 30 31 31 32 32 32 32 32 33 33
18 19 19 19 20 21 21 22 22 23 23 24 24 24 25 26 26 27 27 27 27 28 28 29 29 29 30 30 31 31 31 31 32 32 32 32 32 32
20 21 21 21 22 22 23 23 24 24 24 25 25 25 26 26 26 27 27 28 28 28 29 29 30 31 31 31 31 31 31 32 32 32 32 32 32 32
22 22 22 22 23 23 24 24 25 25 26 26 26 26 26 27 27 28 28 28 29 29 30 31 31 31 31 31 31 31 31 31 31 31 31 32 32 32
23 22 23 23 24 24 24 25 25 25 26 26 27 27 27 28 28 28 29 29 29 29 30 31 31 31 31 31 30 31 31 31 31 31 31 31 31 31
24 23 23 24 24 24 25 25 25 26 26 27 27 28 28 28 29 29 29 29 30 30 30 30 30 30 30 29 29 30 30 30 30 30 30 31 31 30
24 24 24 24 24 25 26 26 26 26 26 26 27 28 28 28 28 28 29 30 30 30 30 30 30 29 29 29 29 30 30 30 30 30 30 30 30 30
26 26 26 27 27 27 27 27 28 28 28 28 28 28 28 28 29 29 30 30 30 30 30 30 29 29 29 29 29 30 30 30 30 30 30 29 29 29
28 28 28 29 29 28 28 28 28 28 28 28 28 29 29 30 30 30 30 30 30 30 29 29 29 29 29 29 30 30 30 30 30 29 29 29 28 28
29 29 29 29 29 29 29 29 29 29 29 29 29 30 30 31 31 31 30 29 29 30 29 29 29 29 29 30 30 30 30 30 29 29 28 28 28 28
30 29 30 31 31 31 30 30 29 29 30 30 31 31 31 31 31 31 31 30 30 30 30 30 30 30 30 30 30 30 30 29 28 28 28 28 28 29
30 30 31 31 32 31 31 31 31 31 31 31 31 31 30 31 32 31 31 30 30 30 30 30 30 30 30 30 30 30 29 29 29 29 29 29 29 28
31 31 31 31 31 32 32 32 32 32 32 31 31 30 31 31 31 31 31 30 30 30 30 30 30 30 30 30 30 29 29 29 29 29 29 29 29 29
32 32 32 32 32 32 32 32 32 32 32 32 31 31 32 32 31 31 31 30 30 30 31 31 31 30 30 30 29 29 29 29 29 29 29 29 28 28
32 32 32 32 33 33 33 32 32 33 33 32 32 31 32 31 31 31 31 31 31 30 31 31 31 31 30 30 30 30 30 29 29 29 29 29 29 28
33 34 34 34 34 33 33 33 33 32 32 32 32 32 32 31 32 32 32 31 31 31 31 31 31 31 31 30 30 30 30 30 30 29 29 29 29 28

GEFSNE_500_meanwind_216.txt.gz
Wind_Speed
13 13 14 14 15 15 15 16 16 17 16 16 16 16 17 17 18 18 18 18 19 19 19 20 20 20 21 22 22 22 24 24 25 25 26 26 27 27
14 14 15 15 16 16 16 16 17 18 18 18 18 18 18 19 19 20 19 20 21 21 21 21 22 22 22 23 24 24 25 25 25 26 26 26 27 27
15 15 15 15 16 17 17 18 18 19 19 19 19 19 19 19 20 20 21 21 22 22 22 22 23 23 24 24 25 25 25 26 26 27 27 27 27 28
16 16 16 17 17 18 18 18 19 19 20 20 20 20 20 20 21 21 21 22 23 23 23 23 24 24 25 26 26 26 27 27 27 27 27 27 28 29
17 17 17 18 18 19 19 20 20 21 21 21 21 21 21 22 22 22 22 22 23 24 24 24 25 25 26 26 26 27 27 27 27 27 28 28 29 29
18 18 19 19 19 20 20 21 21 22 21 22 22 22 22 23 23 23 23 24 25 25 25 25 25 26 26 26 26 27 27 28 28 29 29 29 30 30
20 20 20 20 20 20 21 22 22 22 23 23 23 24 24 24 25 25 25 25 26 26 26 27 27 27 27 27 27 28 28 28 29 29 29 30 30 31
21 21 21 21 22 22 22 23 24 24 24 25 25 26 26 27 26 26 27 26 26 27 27 27 27 28 28 28 28 29 29 29 29 29 30 30 30 30
22 22 22 23 23 23 24 25 26 26 26 26 27 27 27 27 27 27 28 28 28 28 28 28 28 28 29 29 29 29 30 30 30 30 30 30 30 30
24 24 25 25 25 26 26 26 26 27 27 27 28 28 28 28 28 28 28 28 28 29 29 28 29 29 29 30 30 30 30 30 30 30 31 31 31 30
25 26 26 27 27 27 28 28 28 28 27 27 28 28 28 29 29 28 28 29 29 29 29 29 29 29 29 30 30 30 30 30 30 31 31 31 31 30
27 28 28 28 28 28 29 29 28 28 28 28 28 29 29 28 28 28 29 29 30 30 30 30 30 30 29 29 30 29 30 30 30 30 30 30 30 30
29 29 28 28 28 30 29 29 28 29 28 29 29 28 28 28 28 29 30 30 30 30 30 30 30 30 29 29 29 29 29 30 29 29 29 29 29 29
31 30 30 29 30 30 29 29 29 29 29 29 29 29 29 30 30 30 31 31 30 30 30 30 30 30 29 29 29 29 29 29 29 29 29 29 29 29
31 31 31 30 30 30 30 30 29 29 29 29 29 30 31 31 32 31 31 30 30 30 29 29 30 30 30 30 30 29 29 29 29 29 29 29 29 29
33 33 32 32 31 30 31 31 31 30 30 30 30 31 32 32 32 32 32 31 30 30 29 29 29 29 30 30 29 29 30 29 29 29 29 29 29 29
34 34 33 33 32 31 31 31 32 31 31 31 31 31 31 31 32 32 31 31 30 30 29 29 29 29 29 30 30 30 31 30 30 30 29 29 29 28
34 34 34 33 33 32 32 32 32 31 31 31 31 31 31 31 32 32 31 31 31 31 30 30 30 30 30 30 30 30 30 30 29 29 29 28 28 27
34 34 34 34 34 34 33 33 32 32 32 32 32 32 32 32 32 32 32 32 31 31 31 31 30 29 29 29 29 29 29 29 29 29 28 28 28 27
35 35 35 35 35 34 34 33 33 33 33 32 33 33 33 32 32 32 32 32 31 31 31 30 30 29 29 29 28 28 28 28 28 28 28 28 28 28
36 35 35 35 35 35 34 33 33 33 32 32 32 32 32 32 32 32 32 31 31 30 30 30 29 29 29 29 28 27 28 28 28 29 29 28 28 28
35 35 35 35 34 35 34 33 32 32 31 31 30 31 32 32 32 31 31 31 30 30 30 30 29 29 29 29 29 28 28 28 28 29 29 29 29 28
35 35 35 34 34 34 33 32 31 31 31 31 31 31 31 32 31 31 31 31 30 30 30 30 29 29 29 29 29 29 29 29 29 29 29 29 29 29

GEFSNE_500_meanwind_222.txt.gz
Wind_Speed
10 11 11 12 12 13 13 14 14 15 15 15 16 16 17 17 18 18 19 19 19 19 19 20 20 21 21 22 23 24 25 24 24 25 25 26 27 26
12 12 12 13 13 14 15 15 15 15 16 17 17 17 18 18 18 19 20 20 20 21 21 21 21 22 23 23 24 24 25 26 25 26 26 26 27 26
13 13 13 14 14 15 15 15 16 17 18 18 18 18 18 19 20 21 21 21 21 22 22 22 23 23 23 23 24 25 25 25 26 27 27 27 26 26
14 15 15 15 15 15 16 17 17 18 18 18 18 19 19 20 21 21 22 22 22 23 23 24 24 24 24 24 25 25 25 25 26 27 27 27 27 27
15 16 16 16 16 16 17 17 18 19 19 19 19 20 21 21 21 22 23 23 23 23 24 25 25 25 25 25 26 26 27 26 26 27 27 27 28 28
16 17 17 17 17 17 17 18 19 19 20 20 21 21 22 23 23 23 24 25 25 26 26 26 26 26 26 26 26 27 27 27 27 28 29 29 29 29
17 17 17 17 18 18 19 19 19 19 20 21 22 24 24 25 24 24 25 26 26 26 26 26 26 27 27 27 27 27 27 27 27 28 29 29 29 29
18 18 18 18 19 19 20 20 20 21 21 23 24 25 25 26 26 26 26 26 26 26 27 27 27 27 27 27 27 27 28 28 28 29 30 29 29 29
20 19 20 20 20 21 21 21 22 23 23 24 24 25 26 26 26 26 26 27 27 27 27 27 27 27 27 27 27 27 28 29 29 30 30 29 29 29
22 22 22 23 22 22 22 23 23 24 25 26 26 27 27 26 27 27 27 28 28 28 27 27 28 28 29 28 29 29 30 30 30 30 30 30 30 30
24 24 24 24 24 24 25 25 25 25 26 27 27 27 27 27 27 28 28 28 29 29 28 28 28 28 29 29 29 29 30 30 30 30 30 30 30 30
26 26 26 26 26 26 27 27 26 26 27 27 27 28 28 28 29 29 29 29 29 29 28 28 28 28 28 29 29 29 29 29 29 29 29 29 30 30
28 28 28 28 28 28 28 28 28 28 28 28 28 28 29 30 30 29 29 28 28 28 27 27 28 28 29 29 29 29 29 29 29 29 29 29 29 29
30 29 29 29 29 29 29 29 28 28 28 28 29 29 29 29 29 29 28 28 27 27 27 28 28 28 29 29 29 29 29 29 29 29 29 30 29 29
31 30 30 30 29 29 29 28 28 28 29 29 29 30 30 30 29 27 27 27 27 27 28 29 29 29 29 29 29 29 29 28 28 29 29 29 29 29
31 31 31 30 29 29 29 29 29 29 30 30 30 30 30 29 29 28 28 27 27 27 28 29 29 29 29 29 29 29 29 29 28 28 28 28 28 28
32 31 30 29 29 29 29 30 30 30 31 31 31 30 30 29 29 29 29 28 28 28 28 29 29 30 29 29 29 29 29 29 28 28 28 28 28 27
32 31 31 31 31 31 31 31 31 31 31 31 32 31 31 30 30 30 30 29 29 28 29 29 29 30 30 29 29 29 29 28 28 27 27 27 28 27
33 32 32 32 32 32 33 33 32 32 32 32 32 32 31 30 30 29 29 29 29 29 29 30 29 30 30 30 29 29 29 28 27 27 26 26 26 26
33 33 34 34 34 34 34 33 33 33 33 33 32 32 31 30 30 30 29 29 29 29 30 30 30 30 30 30 29 28 28 28 27 26 25 25 25 25
33 34 34 34 34 34 33 33 34 33 33 33 32 32 31 31 30 31 30 30 30 30 30 30 30 30 29 29 28 28 28 28 27 27 26 25 25 25
34 35 35 35 34 34 33 33 33 33 33 33 33 32 32 31 31 31 31 30 30 30 31 31 31 30 29 29 28 29 28 28 28 28 27 26 26 25
35 35 35 35 35 34 34 33 32 32 32 32 32 32 31 32 32 31 30 31 31 31 31 31 31 30 29 29 29 29 28 27 27 27 27 27 26 26

GEFSNE_500_meanwind_228.txt.gz
Wind_Speed
9 10 12 13 13 14 14 14 15 15 16 17 17 17 18 18 18 18 19 19 19 20 20 21 21 21 22 22 23 24 24 24 25 25 27 27 27 27
11 12 13 14 15 15 15 16 17 17 18 18 19 19 19 19 19 20 19 20 21 21 21 22 22 23 23 23 24 25 25 25 26 26 27 28 28 28
13 14 14 14 15 16 16 17 17 18 19 19 20 20 20 20 20 20 20 21 21 22 23 23 24 24 25 25 25 26 26 26 27 27 28 28 28 29
15 15 16 16 16 17 17 18 18 19 19 18 19 19 20 20 21 21 21 22 23 24 25 25 26 26 26 26 26 26 27 27 27 28 29 29 29 30
16 17 17 16 17 17 18 18 19 19 19 19 19 20 21 22 22 22 23 24 25 26 26 26 26 26 27 27 27 28 28 28 29 29 29 30 30 30
17 17 18 17 18 19 19 20 20 20 21 22 22 23 23 23 24 24 25 26 26 26 26 26 27 27 28 28 29 29 30 29 29 29 29 29 29 30
18 19 19 19 19 20 20 21 22 22 23 23 24 24 25 25 26 26 27 27 28 28 28 28 28 28 29 30 30 31 31 30 30 29 29 29 29 29
20 21 21 21 21 22 22 23 24 24 24 24 25 25 25 26 27 27 27 28 29 29 29 29 29 29 30 30 31 31 31 30 30 30 30 30 30 30
23 23 23 23 24 24 24 25 25 25 26 26 26 26 27 27 28 28 28 29 29 29 29 29 30 30 31 31 31 31 31 30 30 30 30 30 30 31
24 24 25 25 26 27 27 26 27 27 27 27 28 28 28 28 28 29 29 29 29 30 30 30 31 31 31 32 31 31 31 30 30 31 30 30 30 30
26 26 26 26 27 28 29 29 28 28 28 28 28 28 28 29 29 29 29 30 30 30 30 31 31 31 31 31 31 31 31 30 30 30 30 30 30 30
28 28 29 29 29 29 30 30 30 29 29 30 29 29 29 30 30 30 30 30 30 30 30 30 30 31 31 31 31 31 31 30 30 30 30 30 30 30
30 30 31 31 30 30 30 29 30 30 30 30 30 30 31 30 30 30 30 30 30 30 30 30 30 30 30 31 30 30 30 30 30 30 29 29 29 29
31 31 31 32 30 30 30 30 31 30 30 31 31 31 32 31 31 31 32 32 31 31 30 30 30 31 31 30 30 30 30 30 29 29 29 29 29 29
32 31 32 31 32 32 32 32 31 31 32 32 32 32 32 32 32 32 32 32 32 31 31 31 31 31 31 30 29 29 29 29 29 29 29 29 29 29
32 32 32 33 33 33 32 32 32 32 32 32 32 32 32 32 33 33 33 33 33 32 32 31 31 31 30 30 30 29 29 28 28 28 28 28 29 28
34 34 34 34 34 33 34 34 33 33 33 33 33 32 32 33 33 33 33 33 32 32 31 31 31 30 30 30 30 30 29 29 28 28 28 28 28 28
34 34 34 33 34 34 34 34 34 34 34 34 34 33 33 33 33 33 33 33 33 32 31 32 32 31 30 30 30 29 29 29 28 28 28 28 27 27
35 35 34 35 36 36 35 35 34 34 34 35 35 34 34 33 33 32 32 32 32 32 32 32 32 31 31 30 30 30 29 29 29 28 28 27 27 26
36 36 36 36 36 36 35 35 35 35 35 35 35 34 34 33 33 32 31 32 32 32 32 32 31 31 31 31 30 29 29 29 29 28 28 27 26 26
36 36 36 36 36 35 35 35 36 36 36 36 35 34 34 33 33 32 32 32 32 32 32 31 31 31 31 31 30 29 29 29 29 29 28 27 26 25
37 36 36 36 36 36 35 35 35 35 35 35 35 34 34 33 33 33 33 33 33 33 32 32 31 31 31 31 30 30 29 29 29 29 28 27 26 26
37 37 36 36 36 36 36 35 35 34 34 34 34 34 34 34 34 33 33 34 34 33 31 31 31 31 30 30 30 30 29 29 29 29 28 27 27 26

GEFSNE_500_meanwind_234.txt.gz
Wind_Speed
8 9 10 11 11 12 12 13 14 15 15 16 17 17 17 18 18 18 19 20 20 20 21 21 21 21 21 21 22 23 23 24 24 25 25 25 26 26
10 10 11 12 13 13 14 15 16 16 17 17 18 19 19 20 20 20 21 21 21 21 22 22 22 22 22 23 24 24 24 25 25 25 26 26 26 27
11 12 13 14 15 15 16 17 17 18 18 18 19 20 21 21 22 22 23 23 22 23 23 23 23 24 25 25 25 25 26 26 27 27 27 27 27 27
13 14 15 15 16 17 17 18 18 19 20 20 20 21 22 23 23 24 24 25 24 24 25 25 25 26 26 26 26 26 27 27 28 28 28 28 28 28
15 16 16 17 18 19 19 19 20 21 22 22 23 23 24 24 23 24 24 25 25 26 26 26 26 27 27 27 28 28 28 28 28 28 29 29 29 29
16 17 18 18 19 20 20 21 22 23 24 24 24 24 24 24 24 25 25 25 26 27 27 27 28 28 28 28 28 29 29 29 29 29 30 30 30 30
18 18 18 19 20 21 22 23 24 25 25 25 25 25 24 24 25 25 26 27 27 28 29 29 29 29 29 29 30 30 30 30 30 30 31 31 31 31
19 20 20 21 22 23 24 25 25 25 25 25 25 25 25 26 27 27 28 28 28 29 29 29 29 30 30 30 30 31 31 31 31 31 32 31 31 31
21 22 23 23 23 24 25 26 26 26 27 26 27 27 28 28 29 29 28 29 29 29 30 30 30 30 30 30 31 31 31 31 31 31 31 31 31 31
23 24 25 25 26 26 26 27 27 27 28 28 28 28 29 29 29 29 29 30 30 30 31 30 30 30 30 31 31 31 30 31 31 31 31 31 31 31
26 28 28 28 28 28 28 28 28 29 29 29 28 29 29 29 29 30 30 31 31 32 32 31 31 31 31 31 31 31 31 31 31 31 31 31 30 30
29 30 30 31 30 29 28 28 29 30 30 30 30 30 30 30 30 31 31 31 31 31 31 31 31 31 32 32 32 31 31 31 31 30 30 29 29 29
31 31 31 31 31 31 30 30 30 30 30 31 31 31 31 31 31 31 31 30 30 31 32 32 32 32 32 32 31 32 31 31 31 30 30 29 28 28
31 31 31 31 32 32 32 32 32 32 32 33 32 32 32 32 32 31 31 31 32 32 32 32 32 32 32 32 32 31 31 31 30 29 29 29 28 28
32 32 32 32 32 33 33 33 33 33 34 34 33 33 32 32 32 32 32 33 33 33 33 32 32 32 32 32 32 31 30 30 30 29 29 28 28 28
32 32 32 33 33 34 34 34 34 34 34 34 32 32 32 33 33 32 33 33 33 33 32 32 32 32 32 32 32 31 30 29 29 29 29 28 28 28
34 34 34 34 35 36 35 35 35 35 35 35 34 34 33 34 34 33 33 33 33 33 32 31 31 31 31 31 31 30 30 29 29 29 29 28 28 28
34 34 35 35 36 36 36 36 35 36 35 35 35 35 34 34 34 33 33 33 33 32 31 31 31 31 31 30 30 30 30 30 29 29 29 28 28 28
35 36 36 36 36 36 36 36 35 36 36 35 36 36 35 34 33 32 32 32 32 32 32 31 31 31 31 30 30 30 30 29 29 28 28 29 29 28
36 36 36 36 36 36 36 36 36 36 36 36 36 35 34 33 32 31 31 31 32 32 32 31 31 31 30 30 30 30 29 29 28 28 29 29 28 27
36 36 36 37 37 37 37 36 36 36 36 36 36 34 33 33 32 32 31 32 32 32 32 32 32 31 30 29 29 29 30 29 29 30 29 29 28 27
37 38 38 38 38 37 36 36 36 36 36 35 34 33 33 33 33 32 32 31 31 31 31 31 31 30 30 30 30 30 30 30 30 30 29 29 29 28
37 37 38 38 37 37 36 36 35 34 34 34 34 34 34 34 34 33 32 31 31 31 31 32 32 31 31 30 31 30 30 30 30 30 29 29 29 29

GEFSNE_500_meanwind_240.txt.gz
Wind_Speed
10 10 10 11 12 13 13 14 14 14 14 15 15 16 17 18 18 20 20 20 21 21 21 21 21 20 20 21 21 21 22 22 22 22 23 23 23 23
11 11 12 12 13 14 15 16 16 16 16 16 17 18 18 19 20 21 21 22 22 23 22 22 22 22 22 22 22 23 23 23 23 23 23 24 24 24
13 13 13 14 15 16 16 17 17 17 17 18 19 20 20 20 21 21 22 23 24 24 23 23 23 23 23 23 23 24 24 23 24 24 25 25 25 25
13 14 14 15 16 17 17 18 19 19 19 20 21 21 22 22 23 23 24 24 25 25 24 23 23 23 24 24 24 24 24 24 24 25 25 26 26 25
15 16 16 17 18 18 18 19 20 20 21 21 22 22 23 24 25 25 25 25 26 24 24 24 24 24 24 25 25 25 25 25 25 26 26 26 26 26
17 18 18 19 20 20 20 21 21 22 22 22 23 24 25 25 26 26 25 25 25 24 24 24 25 25 25 25 25 26 26 26 26 27 27 27 27 27
18 19 20 21 22 22 22 23 23 23 24 24 25 26 27 27 27 27 27 26 25 25 25 24 25 25 26 26 26 26 27 27 28 28 27 27 28 28
20 21 22 23 23 23 23 24 25 25 26 26 26 27 27 27 28 28 27 26 26 26 26 25 25 25 25 26 27 27 28 28 28 28 28 28 28 28
22 22 23 24 24 24 24 25 26 26 27 28 28 28 29 29 29 28 28 27 27 27 27 26 26 27 27 27 28 28 28 29 29 29 29 29 29 29
24 24 24 25 26 26 26 27 28 29 29 30 29 30 30 30 29 29 29 29 28 28 29 29 28 29 29 29 29 30 30 30 30 30 30 30 29 29
27 28 27 28 28 29 29 29 30 30 31 30 29 30 31 31 30 29 30 30 29 29 29 30 30 30 30 30 30 30 30 31 31 30 30 30 30 30
30 30 30 30 31 31 31 31 31 31 31 30 31 31 31 31 32 30 30 30 30 30 31 31 31 31 30 30 31 31 31 30 30 30 30 30 31 31
32 32 32 32 32 32 32 32 32 32 32 32 32 32 32 33 33 32 31 32 32 32 31 31 32 32 31 31 31 30 30 30 31 30 29 30 30 30
34 34 34 33 33 33 33 33 33 34 33 33 33 32 33 34 33 33 33 33 33 33 32 32 32 32 32 32 32 31 30 30 31 30 30 29 29 29
37 36 35 35 34 35 35 35 35 35 34 34 34 33 33 34 34 33 33 34 34 33 33 32 32 32 32 32 32 32 31 31 30 30 29 29 29 29
38 38 36 36 37 37 36 37 37 36 35 35 35 34 34 35 35 34 34 33 33 32 33 33 33 33 33 31 31 31 31 30 31 30 30 29 29 28
38 38 38 38 38 38 38 38 37 37 36 36 35 35 34 35 35 35 33 33 33 33 33 33 33 33 33 32 32 31 31 31 31 31 31 30 29 29
39 38 39 39 38 38 39 38 38 37 37 37 36 36 35 35 35 35 34 34 33 33 33 33 34 33 33 32 32 32 32 31 30 31 31 31 30 29
38 38 39 39 39 38 38 38 38 37 37 36 36 36 36 35 35 35 35 34 34 33 33 33 33 33 33 32 32 32 31 30 30 30 31 30 29 28
38 39 39 39 39 38 38 38 38 38 37 37 37 37 37 37 36 35 35 34 34 33 32 32 32 33 33 32 31 31 31 30 30 30 30 30 30 29
39 39 39 39 38 38 37 38 38 38 37 37 38 38 37 37 36 36 35 35 34 33 33 32 33 33 32 32 31 30 31 30 30 29 30 29 29 28
37 38 37 37 36 36 37 37 38 37 37 37 38 38 37 37 37 36 35 35 35 34 34 33 33 32 32 31 31 31 30 31 30 30 30 29 29 28
34 35 35 36 36 37 38 37 37 37 38 38 38 38 37 36 36 35 35 34 35 35 34 34 34 33 32 31 31 31 31 31 30 29 29 28 28 28

GEFSNE_500_meanwind_246.txt.gz
Wind_Speed
6 6 7 7 8 8 9 9 9 10 11 11 12 12 14 15 16 16 17 17 18 18 18 18 19 20 20 21 21 20 20 21 22 22 23 23 23 23
8 8 8 8 9 9 10 11 11 12 12 13 14 15 16 17 18 18 18 19 20 19 19 19 20 21 21 21 20 20 21 22 22 23 24 24 24 25
10 10 11 11 11 11 11 12 12 13 13 14 16 17 18 19 19 20 21 21 21 21 21 21 21 21 21 21 21 21 21 21 22 23 24 24 25 25
12 12 13 13 13 13 13 14 14 15 15 15 16 17 18 19 20 21 22 22 22 22 23 23 22 22 22 22 22 22 23 23 24 24 24 25 26 26
15 15 15 15 15 15 15 15 16 17 17 17 18 19 19 20 21 22 22 22 23 23 24 24 23 23 23 23 23 23 24 24 25 25 26 26 26 27
17 17 17 18 17 16 17 17 18 18 19 20 20 21 21 22 22 23 23 23 24 25 25 24 24 23 24 24 24 24 25 25 26 26 27 27 27 27
18 18 19 20 20 19 19 19 20 21 21 22 22 22 23 24 24 24 24 25 25 26 25 25 24 24 25 25 26 26 26 26 26 26 26 26 27 27
21 21 22 23 23 22 21 22 22 22 22 23 24 24 24 25 25 25 26 26 26 25 25 26 25 25 25 26 26 27 28 28 28 28 27 27 28 28
23 23 23 23 23 23 23 23 24 24 24 25 26 26 26 25 25 26 26 26 26 26 25 25 26 26 27 27 28 28 29 29 29 28 28 28 28 29
26 26 24 24 24 24 23 23 24 25 26 26 26 26 25 25 25 26 26 26 26 26 26 26 27 28 29 30 30 30 30 30 30 29 29 29 29 30
27 27 26 26 26 26 26 26 27 27 27 28 27 27 26 26 26 27 28 27 27 27 27 27 27 29 30 30 31 31 31 30 30 29 29 29 30 30
30 29 29 29 29 29 30 29 28 28 29 29 29 29 28 28 29 29 29 29 28 28 29 29 29 30 30 31 31 31 31 30 30 29 29 29 30 30
32 32 31 31 31 32 32 31 30 31 31 31 31 31 31 31 31 31 31 31 30 30 30 30 31 31 31 31 31 32 31 30 30 30 30 30 30 30
34 34 33 34 34 33 33 32 32 33 33 33 32 32 32 32 33 33 32 32 31 31 31 31 31 32 32 32 31 31 31 30 30 30 30 31 31 30
36 36 36 35 36 35 34 34 34 34 34 34 34 34 34 34 34 35 34 33 33 32 32 32 32 33 32 31 31 31 31 31 31 31 31 31 31 31
38 37 37 37 37 36 36 36 36 35 36 35 35 36 36 35 35 36 35 34 33 33 34 34 34 33 33 32 31 31 31 31 32 32 31 31 30 30
38 37 38 38 37 37 37 36 37 36 36 37 37 36 36 36 36 37 36 35 34 33 34 35 35 34 33 33 32 32 32 32 32 32 32 31 30 30
38 38 38 38 38 38 38 38 38 38 38 38 38 37 37 37 37 37 36 35 34 34 35 35 35 34 34 33 34 34 33 33 33 33 33 32 31 31
38 38 38 38 38 38 38 39 39 39 39 38 38 38 37 37 37 37 36 36 35 35 35 35 35 35 34 33 33 35 35 34 34 33 33 32 32 32
37 37 37 38 38 38 38 38 37 37 37 37 37 36 36 36 36 36 37 37 36 36 36 35 36 35 35 34 34 34 35 35 34 33 33 33 32 31
36 35 36 37 37 37 36 36 36 35 35 35 35 36 36 36 36 36 36 36 36 36 36 36 36 35 35 34 34 33 34 34 34 32 32 32 31 30
34 34 34 34 34 34 34 34 34 34 34 34 34 35 35 36 36 36 36 36 36 36 36 35 35 35 35 35 34 34 33 34 34 33 32 32 31 30
32 32 32 32 32 32 32 33 33 34 34 34 34 35 36 36 36 36 36 35 35 35 35 35 34 35 35 36 35 35 34 34 34 33 32 31 31 31

GEFSNE_500_meanwind_252.txt.gz
Wind_Speed
9 9 10 10 10 11 12 12 12 12 12 13 13 14 14 15 15 16 17 17 18 19 20 20 21 21 21 21 21 21 21 22 22 22 22 22 22 22
11 11 12 12 13 13 14 14 15 14 14 14 15 16 16 17 17 18 19 19 20 20 21 21 22 22 23 23 23 23 23 23 23 23 23 23 23 23
13 13 14 14 15 15 16 16 16 16 16 16 17 17 18 19 19 19 20 21 22 22 22 22 23 23 23 23 24 24 24 24 24 24 25 24 24 25
14 15 15 16 17 17 17 17 18 18 18 19 19 19 20 21 21 21 22 22 23 23 23 24 24 24 24 24 24 24 25 25 25 25 25 25 26 26
17 17 17 18 19 19 19 20 20 20 20 20 20 21 22 22 22 22 22 23 24 24 24 25 25 25 26 25 25 25 25 26 26 26 26 26 27 27
19 19 20 20 20 21 21 22 22 22 22 22 23 23 24 24 24 24 24 25 26 26 26 26 26 26 26 26 26 26 26 27 27 27 27 27 27 27
22 22 22 23 23 23 23 22 23 23 23 24 25 25 25 25 25 26 26 27 27 27 28 28 27 27 27 27 26 26 26 27 28 28 29 29 29 29
24 24 25 25 25 25 26 26 26 26 25 25 26 26 27 27 27 28 28 28 28 28 29 29 28 28 27 27 27 27 28 28 29 30 30 30 30 30
26 26 27 28 28 28 28 29 29 28 27 27 27 28 29 29 29 30 30 29 29 29 29 29 29 29 28 28 28 29 29 30 30 30 31 31 31 31
28 28 29 30 30 30 31 31 30 30 29 29 29 29 30 30 30 31 31 30 30 30 29 28 28 28 28 28 29 30 30 30 31 31 31 31 31 31
31 31 32 32 32 33 33 33 33 32 32 32 31 32 32 31 30 30 30 30 29 29 30 29 29 29 29 30 30 31 31 31 31 31 32 32 32 31
34 34 35 35 36 36 36 36 35 34 34 34 33 33 33 32 32 32 32 32 31 30 30 31 31 31 31 31 31 32 32 32 33 32 32 32 32 32
35 36 37 38 38 38 37 37 37 37 37 35 34 34 34 34 34 34 34 34 34 33 32 32 32 33 33 33 33 34 34 33 33 34 33 33 32 32
37 38 39 39 38 38 38 38 38 38 38 37 36 35 35 36 36 36 35 35 35 35 35 35 35 35 34 34 35 35 35 35 35 34 34 33 33 32
38 39 39 39 39 39 39 39 40 39 38 37 37 36 36 36 37 37 37 37 37 36 36 36 36 36 36 36 36 36 35 35 35 35 34 34 33 32
38 38 38 39 39 40 40 39 39 39 39 39 38 38 38 38 38 38 38 38 38 37 38 37 37 38 37 37 37 36 36 36 35 35 34 34 33 32
38 38 39 39 39 40 40 40 40 40 40 40 40 39 39 39 38 38 38 38 38 38 37 37 38 38 37 37 37 36 36 36 36 35 35 35 33 32
39 39 40 40 40 39 39 39 39 39 40 40 40 39 39 39 40 40 39 39 39 39 39 39 38 38 38 38 38 37 36 36 36 36 36 34 33 33
39 38 38 38 38 38 38 38 38 39 39 39 40 40 40 40 40 40 40 40 40 40 40 39 39 39 39 38 37 38 37 37 36 36 35 34 33 33
37 37 37 37 36 37 37 38 38 38 38 39 40 40 41 41 40 40 40 39 39 40 40 39 39 39 38 38 37 36 37 36 36 35 35 34 34 34
36 36 36 36 35 36 36 37 37 37 37 38 39 40 40 40 40 39 39 39 39 39 39 38 38 38 37 37 36 36 36 36 36 35 35 35 34 34
36 36 37 36 36 36 36 36 37 37 37 37 37 38 38 38 38 38 38 37 37 37 37 37 37 38 37 37 36 36 36 36 36 36 35 35 34 33
37 36 36 36 36 36 37 37 37 37 37 37 37 37 37 37 37 37 37 37 37 37 37 37 37 37 37 36 36 36 36 36 36 35 34 34 34 34